Epoch 2019 June 6.0 TT = JDT 2458640.5 T 2019 June 7.19822 TT Rudenko q 1.2905922 (2000.0) P Q z +0.0004939 Peri. 112.87639 -0.13205758 -0.82927268 +/-0.0000016 Node 324.62529 +0.10167733 +0.53359277 e 0.9993625 Incl. 69.71521 +0.98601345 -0.16608905 From 256 observations 2018 Aug. 8-2019 Dec. 6, mean residual 0".7.
m1 = 11.0 + 5 logΔ + 10.0 log r [ ,-47] ( 〜2019年 4月21日) m1 = 1.0 + 5 logΔ + 70 log r [-47, 0] (2019年 4月21日〜2019年 6月 7日) m1 = 6.2 + 5 logΔ + 23 log r [ 0, ] (2019年 6月 7日〜 )